Simultaneous Nadir Overpasses (SNOs) Predictions

Prediction of SNOs between GOES-15 and TERRA Satellite Orbit:

Table of predicted SNOs for the next 14.0 days since TLE Epoch: 4/14/2023
Index Date Time (GOES-15) GOES-15 Lat,Lon TERRA Lat,Lon Distance(km) Time Diff (sec)
1 04/15/2023 07:17:51 0.19,-133.59 -0.55,-137.02 389.66 80
2 04/17/2023 06:59:05 0.19,-134.58 0.51,-133.16 161.43 80
3 04/17/2023 19:22:00 -0.20,-134.83 0.50,-138.09 370.38 80
4 04/19/2023 19:03:13 -0.19,-135.82 -0.53,-134.22 180.87 80
5 04/20/2023 07:26:16 0.20,-136.08 -0.46,-139.19 353.32 80
6 04/22/2023 07:07:28 0.20,-137.05 0.54,-135.31 197.01 80
7 04/22/2023 19:30:24 -0.20,-137.30 0.39,-140.25 335.36 80
8 04/24/2023 19:11:36 -0.21,-138.27 -0.63,-136.39 214.48 80
9 04/25/2023 07:34:38 0.21,-138.53 -0.40,-141.34 319.75 80
10 04/27/2023 07:15:50 0.22,-139.49 0.66,-137.47 229.35 80
11 04/27/2023 19:38:44 -0.22,-139.72 0.31,-142.40 303.46 80
